Home > Weather > Perchtoldsdorf > Past weeks

Flag for Austria Past Weather in Perchtoldsdorf, Lower Austria, Austria — Yesterday and Last 2 Weeks

Now
67 °F

Mild.


Feels Like: 67 °F
Forecast: 62 / 85 °F
Wind: 5 mph from West

Location: Wien / Hohe Warte

Current Time: Jul 29, 2016 at 6:13:08 AM

Latest Report: Jul 29, 2016 at 5:00 AM


Visibility: N/A

Pressure: 29.96 "Hg

Humidity: 80%

Dew Point: 60 °F

Location of PerchtoldsdorfLocation

Past Weather in Perchtoldsdorf — Graph

°F

Perchtoldsdorf Temperature Yesterday

Maximum temperature yesterday: 80 °F (at 6:00 PM)
Minimum temperature yesterday: 65 °F (at 5:00 AM)
Average temperature yesterday: 72 °F

High & Low Weather Summary for the Past Weeks

 TemperatureHumidityPressure
High86 °F (Jul 21, 3:00 PM)96% (Jul 23, 6:00 AM)30.22 "Hg (Jul 23, 6:00 AM)
Low55 °F (Jul 14, 6:00 AM)41% (Jul 19, 6:00 PM)29.76 "Hg (Jul 14, 7:00 AM)
Average71 °F68%30.03 "Hg
* Reported Jul 14 4:00 AM — Jul 29 4:00 AM, Perchtoldsdorf, Weather by CustomWeather, © 2016

Note: Actual official high and low records may vary slightly from our data, if they occured in-between our weather recording intervals... More about our weather records

Advertising

Perchtoldsdorf Weather History for the Previous 24 Hours

Scroll right to see more
 ConditionsComfort  
Time TempWeatherWind HumidityBarometerVisibility
4:00 AM
Fri, Jul 29
67 °FMild.5 mph80%29.97 "HgN/A
3:00 AM68 °FMild.3 mph79%29.96 "HgN/A
2:00 AM69 °FPassing clouds.3 mph76%29.96 "Hg25 mi
1:00 AM69 °FMild.3 mph73%29.96 "HgN/A
12:00 AM69 °FMild.No wind76%29.96 "HgN/A
11:00 PM
Thu, Jul 28
71 °FMild.3 mph68%29.96 "HgN/A
10:00 PM73 °FOvercast.5 mph66%29.96 "Hg19 mi
9:00 PM73 °FOvercast.5 mph66%29.96 "Hg16 mi
8:00 PM74 °FOvercast.5 mph67%29.96 "Hg22 mi
7:00 PM76 °FPartly sunny.5 mph63%29.95 "Hg25 mi
6:00 PM80 °FOvercast.7 mph55%29.94 "Hg19 mi
5:00 PM79 °FOvercast.5 mph58%29.95 "Hg25 mi
4:00 PM79 °FOvercast.3 mph60%29.95 "Hg25 mi
3:00 PM79 °FOvercast.6 mph60%29.97 "Hg25 mi
2:00 PM77 °FOvercast.5 mph64%29.99 "Hg19 mi
1:00 PM74 °FOvercast.6 mph71%30.01 "Hg19 mi
12:00 PM73 °FOvercast.5 mph74%30.02 "Hg19 mi
11:00 AM73 °FOvercast.3 mph74%30.02 "Hg19 mi
10:00 AM71 °FOvercast.6 mph77%30.02 "Hg19 mi
9:00 AM70 °FMild.6 mph79%30.02 "HgN/A
8:00 AM67 °FOvercast.5 mph85%30.01 "Hg19 mi
7:00 AM66 °FOvercast.2 mph89%30.01 "Hg19 mi
6:00 AM66 °FOvercast.3 mph88%30.00 "Hg19 mi
Weather by CustomWeather, © 2016

See weather overviewHow to use our weather pages